La Vergne, TN

8:20 AM CDT on August 29, 2016 (GMT -0500)
Smyrna

Weather History for KMQY - May, 2013

Change the Weather History Date:

Sunday, May 26, 2013

  Actual Average Record
Temperature  
Mean Temperature 68 °F -  
Max Temperature 84 °F 76 °F 97 °F (2012)
Min Temperature 52 °F 61 °F 52 °F (2013)
Cooling Degree Days 3    
Growing Degree Days 18 (Base 50)    
Moisture  
Dew Point 52 °F    
Average Humidity 61    
Maximum Humidity 93    
Minimum Humidity 31    
Precipitation  
Precipitation 0.00 in - - ()
Sea Level Pressure  
Sea Level Pressure 30.23 in    
Wind  
Wind Speed 2 mph (East)    
Max Wind Speed 8 mph    
Max Gust Speed -    
Visibility 10 miles    
Events      
Averages and records for this station are not official NWS values.
T = Trace of Precipitation, MM = Missing Value Source: NWS Daily Summary

Daily Weather History Graph

Daily Weather History Graph

Search for Another Location

Airport or City:

Trip Planner

Search our weather history database for the weather conditions in past years. The results will help you decide how hot, cold, wet, or windy it might be!

Date:

Astronomy

May. 26, 2013 Rise Set
Actual Time 5:33 AM CDT 7:53 PM CDT
Civil Twilight 5:03 AM CDT 8:23 PM CDT
Nautical Twilight 4:27 AM CDT 8:59 PM CDT
Astronomical Twilight 3:48 AM CDT 9:38 PM CDT
Moon 9:41 PM CDT (5/26) 7:01 AM CDT (5/26)
Length of Visible Light 15h 19m
Length of Day
14h 20m
Waning Gibbous, 96% of the Moon is Illuminated
May 26
Waning Gibbous
May 31
Last Quarter
Jun 8
New
Jun 16
First Quarter
Jun 23
Full

Hourly Weather History & Observations

Time (CDT) Temp. Dew Point Humidity Pressure Visibility Wind Dir Wind Speed Gust Speed Precip Events Conditions
12:56 AM 54.0 °F 48.9 °F 83% 30.24 in 10.0 mi Calm Calm - N/A   Clear
1:56 AM 52.9 °F 48.9 °F 86% 30.24 in 10.0 mi Calm Calm - N/A   Clear
2:56 AM 52.9 °F 50.9 °F 93% 30.24 in 10.0 mi Calm Calm - N/A   Scattered Clouds
3:56 AM 52.0 °F 48.9 °F 89% 30.26 in 10.0 mi Calm Calm - N/A   Scattered Clouds
4:56 AM 52.9 °F 50.9 °F 93% 30.26 in 10.0 mi Calm Calm - N/A   Partly Cloudy
5:56 AM 52.9 °F 50.9 °F 93% 30.28 in 10.0 mi Calm Calm - N/A   Mostly Cloudy
6:56 AM 56.8 °F 52.0 °F 84% 30.28 in 10.0 mi ESE 4.6 mph - N/A   Overcast
7:56 AM 61.0 °F 50.9 °F 69% 30.28 in 10.0 mi ESE 3.5 mph - N/A   Partly Cloudy
8:56 AM 66.9 °F 52.0 °F 59% 30.29 in 10.0 mi ENE 6.9 mph - N/A   Clear
9:56 AM 70.9 °F 52.0 °F 51% 30.28 in 10.0 mi Variable 4.6 mph - N/A   Clear
10:56 AM 73.9 °F 50.9 °F 44% 30.28 in 10.0 mi Variable 3.5 mph - N/A   Clear
11:56 AM 77.0 °F 50.9 °F 40% 30.28 in 10.0 mi SSW 4.6 mph - N/A   Clear
12:56 PM 79.9 °F 48.9 °F 34% 30.25 in 10.0 mi Calm Calm - N/A   Clear
1:56 PM 82.9 °F 50.9 °F 33% 30.24 in 10.0 mi NE 8.1 mph - N/A   Clear
2:56 PM 82.9 °F 48.9 °F 31% 30.22 in 10.0 mi Variable 4.6 mph - N/A   Clear
3:56 PM 84.9 °F 50.9 °F 31% 30.20 in 10.0 mi North 5.8 mph - N/A   Clear
4:56 PM 84.9 °F 52.0 °F 32% 30.18 in 10.0 mi East 6.9 mph - N/A   Clear
5:56 PM 83.8 °F 52.9 °F 34% 30.17 in 10.0 mi NE 6.9 mph - N/A   Clear
6:56 PM 81.9 °F 52.0 °F 35% 30.16 in 10.0 mi East 4.6 mph - N/A   Clear
7:56 PM 77.9 °F 55.9 °F 47% 30.17 in 10.0 mi ENE 5.8 mph - N/A   Clear
8:56 PM 72.0 °F 57.9 °F 61% 30.17 in 10.0 mi East 3.5 mph - N/A   Clear
9:56 PM 66.9 °F 57.9 °F 73% 30.19 in 10.0 mi Calm Calm - N/A   Clear
10:56 PM 64.9 °F 59.0 °F 81% 30.18 in 10.0 mi SE 3.5 mph - N/A   Clear
11:56 PM 63.9 °F 57.9 °F 81% 30.17 in 10.0 mi SSE 3.5 mph - N/A   Clear